NPT13ET EGTE-EGPD

Flight info

Callsign NPT13ET
Flight time 1h 10m
Altitude 24000
Route EXMOR DCT CARWI N864 ETNAH/N0450F350 DCT AZCAL DCT DIZIM DCT AVTIC DCT ANJAK/N0449F360 N38 NOKIN UP16 RIBEL DCT GRICE DCT FINDO P600 NAXIL
Aircraft B738/M-SDE2E3FGHIRWXY/LB1

Departure

Time 2026-04-25 08:21
Airport Exeter International Airport (EGTE)

Arrival

Time 2026-04-25 09:32
Airport Aberdeen International Airport (EGPD)
Time Latitude Longitude Altitude Speed Heading
2026-04-25 07:41 50.73044 -3.42000 108 ft 0 kts 101°
2026-04-25 07:43 50.73048 -3.42001 108 ft 0 kts 131°
2026-04-25 08:12 50.73059 -3.42021 108 ft 4 kts 131°
2026-04-25 08:12 50.73073 -3.42047 106 ft 4 kts 136°
2026-04-25 08:12 50.73092 -3.42065 108 ft 4 kts 197°
2026-04-25 08:12 50.73105 -3.42042 108 ft 4 kts 246°
2026-04-25 08:13 50.73114 -3.42009 107 ft 1 kts 246°
2026-04-25 08:18 50.73109 -3.42029 107 ft 5 kts 246°
2026-04-25 08:18 50.73088 -3.42095 108 ft 8 kts 241°
2026-04-25 08:19 50.73106 -3.42200 109 ft 15 kts 339°
2026-04-25 08:19 50.73212 -3.42242 110 ft 16 kts 346°
2026-04-25 08:19 50.73272 -3.42344 114 ft 15 kts 260°
2026-04-25 08:19 50.73253 -3.42510 114 ft 17 kts 257°
2026-04-25 08:20 50.73182 -3.42652 110 ft 18 kts 193°
2026-04-25 08:20 50.73144 -3.42750 110 ft 13 kts 316°
2026-04-25 08:20 50.73218 -3.42734 110 ft 13 kts 66°
2026-04-25 08:20 50.73242 -3.42585 111 ft 22 kts 76°
2026-04-25 08:21 50.73351 -3.41885 104 ft 110 kts 76°
2026-04-25 08:21 50.73596 -3.40330 248 ft 171 kts 76°
2026-04-25 08:21 50.73887 -3.38345 873 ft 203 kts 81°
2026-04-25 08:21 50.74119 -3.36000 1448 ft 227 kts 81°
2026-04-25 08:22 50.74421 -3.33541 2400 ft 226 kts 80°
2026-04-25 08:22 50.74729 -3.31160 3604 ft 216 kts 79°
2026-04-25 08:22 50.75147 -3.28892 4335 ft 223 kts 62°
2026-04-25 08:22 50.76271 -3.27063 4633 ft 245 kts 29°
2026-04-25 08:23 50.77947 -3.26380 5084 ft 262 kts 360°
2026-04-25 08:23 50.79771 -3.26963 5627 ft 273 kts 342°
2026-04-25 08:23 50.81605 -3.27909 6464 ft 278 kts 342°
2026-04-25 08:23 50.83442 -3.28841 7451 ft 277 kts 341°
2026-04-25 08:24 50.85291 -3.29778 8324 ft 281 kts 341°
2026-04-25 08:24 50.87171 -3.30730 9173 ft 286 kts 341°
2026-04-25 08:24 50.89002 -3.31980 10040 ft 289 kts 327°
2026-04-25 08:24 50.90722 -3.33686 10710 ft 299 kts 327°
2026-04-25 08:25 50.92647 -3.35289 10909 ft 327 kts 335°
2026-04-25 08:25 50.94885 -3.36475 11131 ft 351 kts 345°
2026-04-25 08:25 50.97329 -3.37134 11676 ft 362 kts 353°
2026-04-25 08:25 50.99858 -3.37374 12424 ft 366 kts 358°
2026-04-25 08:26 51.02422 -3.37348 13215 ft 370 kts
2026-04-25 08:26 51.05010 -3.37179 13974 ft 375 kts
2026-04-25 08:26 51.07628 -3.36947 14638 ft 379 kts
2026-04-25 08:26 51.10273 -3.36695 15307 ft 383 kts
2026-04-25 08:27 51.12945 -3.36446 15994 ft 387 kts
2026-04-25 08:27 51.14728 -3.36284 16435 ft 389 kts
2026-04-25 08:27 51.16129 -3.36158 16776 ft 391 kts
2026-04-25 08:27 51.18822 -3.35855 17425 ft 396 kts
2026-04-25 08:28 51.21597 -3.35216 18082 ft 400 kts
2026-04-25 08:28 51.24358 -3.34433 18691 ft 405 kts
2026-04-25 08:28 51.27139 -3.33617 19232 ft 408 kts
2026-04-25 08:28 51.29909 -3.32824 19822 ft 410 kts
2026-04-25 08:29 51.32734 -3.32040 20354 ft 414 kts
2026-04-25 08:29 51.35591 -3.31267 20852 ft 419 kts
2026-04-25 08:29 51.38481 -3.30492 21357 ft 423 kts
2026-04-25 08:29 51.41397 -3.29710 21864 ft 427 kts
2026-04-25 08:30 51.44348 -3.28979 22364 ft 430 kts
2026-04-25 08:30 51.47330 -3.28366 22855 ft 434 kts
2026-04-25 08:30 51.50341 -3.27789 23331 ft 438 kts
2026-04-25 08:30 51.53384 -3.27205 23809 ft 442 kts
2026-04-25 08:31 51.56444 -3.26601 24164 ft 445 kts
2026-04-25 08:31 51.59525 -3.25977 24201 ft 446 kts
2026-04-25 08:31 51.62598 -3.25344 24193 ft 444 kts
2026-04-25 08:31 51.65652 -3.24713 24188 ft 443 kts
2026-04-25 08:32 51.68712 -3.24081 24202 ft 444 kts
2026-04-25 08:32 51.70785 -3.23654 24203 ft 444 kts
2026-04-25 08:32 51.72483 -3.23306 24201 ft 444 kts
2026-04-25 08:32 51.75545 -3.22678 24196 ft 445 kts
2026-04-25 08:33 51.78626 -3.22047 24207 ft 445 kts
2026-04-25 08:33 51.81700 -3.21416 24204 ft 445 kts
2026-04-25 08:33 51.84770 -3.20784 24195 ft 445 kts
2026-04-25 08:33 51.87839 -3.20151 24198 ft 445 kts
2026-04-25 08:34 51.90909 -3.19539 24203 ft 444 kts
2026-04-25 08:34 51.93989 -3.19179 24207 ft 443 kts
2026-04-25 08:34 51.97063 -3.18985 24212 ft 443 kts
2026-04-25 08:34 52.00142 -3.18799 24198 ft 443 kts
2026-04-25 08:35 52.03244 -3.18572 24311 ft 450 kts
2026-04-25 08:35 52.06376 -3.18323 24781 ft 450 kts
2026-04-25 08:35 52.09495 -3.18082 25324 ft 449 kts
2026-04-25 08:35 52.12623 -3.17844 25751 ft 451 kts
2026-04-25 08:36 52.15769 -3.17607 26103 ft 454 kts
2026-04-25 08:36 52.18937 -3.17368 26465 ft 458 kts
2026-04-25 08:36 52.22130 -3.17126 26843 ft 460 kts
2026-04-25 08:36 52.25333 -3.16883 27230 ft 462 kts
2026-04-25 08:37 52.28559 -3.16638 27548 ft 466 kts
2026-04-25 08:37 52.30712 -3.16473 27764 ft 468 kts
2026-04-25 08:37 52.32437 -3.16341 27947 ft 469 kts
2026-04-25 08:37 52.35706 -3.16091 28301 ft 471 kts
2026-04-25 08:38 52.38998 -3.15838 28643 ft 473 kts
2026-04-25 08:38 52.42292 -3.15585 28973 ft 476 kts
2026-04-25 08:38 52.45609 -3.15330 29283 ft 478 kts
2026-04-25 08:38 52.48937 -3.15074 29602 ft 480 kts
2026-04-25 08:39 52.52287 -3.14815 29895 ft 483 kts
2026-04-25 08:39 52.55650 -3.14555 30224 ft 484 kts
2026-04-25 08:39 52.59007 -3.14294 30616 ft 482 kts
2026-04-25 08:39 52.62350 -3.14034 31052 ft 480 kts
2026-04-25 08:40 52.65674 -3.13776 31470 ft 477 kts
2026-04-25 08:40 52.67874 -3.13603 31722 ft 476 kts
2026-04-25 08:40 52.71164 -3.12924 32041 ft 478 kts 11°
2026-04-25 08:40 52.74365 -3.11439 32390 ft 479 kts 20°
2026-04-25 08:41 52.77407 -3.09183 32745 ft 479 kts 25°
2026-04-25 08:41 52.80387 -3.06738 33093 ft 478 kts 26°
2026-04-25 08:41 52.83366 -3.04296 33423 ft 478 kts 25°
2026-04-25 08:41 52.86356 -3.01909 33752 ft 476 kts 25°
2026-04-25 08:42 52.89346 -2.99566 34157 ft 474 kts 24°
2026-04-25 08:42 52.92376 -2.97453 34479 ft 472 kts 20°
2026-04-25 08:42 52.92938 -2.97100 34528 ft 472 kts 19°
2026-04-25 08:42 52.96034 -2.95257 34807 ft 471 kts 18°
2026-04-25 08:43 52.99130 -2.93473 35053 ft 471 kts 18°
2026-04-25 08:43 53.00826 -2.92484 35173 ft 471 kts 19°
2026-04-25 08:43 53.03909 -2.90639 35435 ft 471 kts 19°
2026-04-25 08:43 53.06982 -2.88759 35728 ft 469 kts 19°
2026-04-25 08:44 53.10039 -2.86868 36018 ft 468 kts 19°
2026-04-25 08:44 53.13088 -2.84978 36231 ft 468 kts 19°
2026-04-25 08:44 53.16157 -2.83073 36208 ft 472 kts 19°
2026-04-25 08:45 53.22313 -2.79246 36227 ft 471 kts 19°
2026-04-25 08:45 53.28413 -2.75444 36223 ft 466 kts 20°
2026-04-25 08:46 53.34485 -2.71650 36223 ft 465 kts 20°
2026-04-25 08:46 53.40538 -2.67856 36218 ft 464 kts 20°
2026-04-25 08:47 53.46588 -2.64053 36234 ft 464 kts 20°
2026-04-25 08:47 53.50287 -2.61730 36237 ft 464 kts 20°
2026-04-25 08:48 53.56344 -2.57917 36227 ft 465 kts 20°
2026-04-25 08:48 53.62410 -2.54087 36237 ft 466 kts 20°
2026-04-25 08:49 53.68477 -2.50239 36230 ft 467 kts 20°
2026-04-25 08:49 53.74573 -2.46357 36243 ft 468 kts 20°
2026-04-25 08:50 53.80659 -2.42469 36229 ft 468 kts 20°
2026-04-25 08:50 53.86751 -2.38566 36229 ft 468 kts 20°
2026-04-25 08:51 53.92847 -2.34649 36214 ft 468 kts 20°
2026-04-25 08:51 53.98979 -2.30994 36207 ft 467 kts
2026-04-25 08:51 54.02151 -2.30505 36243 ft 463 kts 356°
2026-04-25 08:52 54.05333 -2.31140 36214 ft 460 kts 344°
2026-04-25 08:52 54.09041 -2.33221 36246 ft 457 kts 338°
2026-04-25 08:53 54.15010 -2.36980 36212 ft 458 kts 338°
2026-04-25 08:53 54.20988 -2.40722 36215 ft 458 kts 338°
2026-04-25 08:54 54.26976 -2.44411 36219 ft 457 kts 338°
2026-04-25 08:54 54.32960 -2.48077 36218 ft 457 kts 338°
2026-04-25 08:55 54.38960 -2.51759 36213 ft 457 kts 338°
2026-04-25 08:55 54.44940 -2.55442 36224 ft 456 kts 338°
2026-04-25 08:56 54.50909 -2.59132 36219 ft 456 kts 338°
2026-04-25 08:56 54.56880 -2.62835 36213 ft 455 kts 338°
2026-04-25 08:57 54.62835 -2.66539 36217 ft 455 kts 338°
2026-04-25 08:57 54.66661 -2.68926 36218 ft 455 kts 338°
2026-04-25 08:58 54.72612 -2.72647 36219 ft 455 kts 339°
2026-04-25 08:58 54.77558 -2.75749 36222 ft 456 kts 338°
2026-04-25 08:59 54.80043 -2.77310 36220 ft 456 kts 338°
2026-04-25 08:59 54.85764 -2.80912 36204 ft 457 kts 338°
2026-04-25 09:00 54.91738 -2.84686 36215 ft 457 kts 338°
2026-04-25 09:00 54.97721 -2.88477 36222 ft 458 kts 338°
2026-04-25 09:01 55.03660 -2.92252 36224 ft 458 kts 338°
2026-04-25 09:01 55.09636 -2.96062 36215 ft 457 kts 338°
2026-04-25 09:02 55.15605 -2.99880 36218 ft 456 kts 338°
2026-04-25 09:02 55.21558 -3.03700 36218 ft 455 kts 338°
2026-04-25 09:03 55.27493 -3.07521 36222 ft 453 kts 338°
2026-04-25 09:03 55.33399 -3.11335 36208 ft 451 kts 338°
2026-04-25 09:04 55.39272 -3.15140 36202 ft 449 kts 338°
2026-04-25 09:04 55.45115 -3.18938 36216 ft 446 kts 338°
2026-04-25 09:05 55.50921 -3.22723 36225 ft 444 kts 338°
2026-04-25 09:05 55.56711 -3.26510 36217 ft 443 kts 338°
2026-04-25 09:06 55.62475 -3.30293 36222 ft 441 kts 338°
2026-04-25 09:06 55.65358 -3.32189 36084 ft 444 kts 338°
2026-04-25 09:06 55.68267 -3.34106 35531 ft 446 kts 338°
2026-04-25 09:06 55.71176 -3.36025 34910 ft 446 kts 338°
2026-04-25 09:07 55.74083 -3.37946 34285 ft 446 kts 338°
2026-04-25 09:07 55.76994 -3.39873 33549 ft 447 kts 338°
2026-04-25 09:07 55.79902 -3.41801 32826 ft 448 kts 338°
2026-04-25 09:07 55.82835 -3.43748 32112 ft 448 kts 338°
2026-04-25 09:08 55.85735 -3.45676 31660 ft 443 kts 338°
2026-04-25 09:08 55.88612 -3.47591 31146 ft 439 kts 338°
2026-04-25 09:08 55.91462 -3.49493 30662 ft 435 kts 338°
2026-04-25 09:08 55.94285 -3.51379 30156 ft 431 kts 338°
2026-04-25 09:09 55.97080 -3.53249 29605 ft 427 kts 338°
2026-04-25 09:09 55.99809 -3.55078 29119 ft 422 kts 338°
2026-04-25 09:09 56.02543 -3.56914 28623 ft 417 kts 338°
2026-04-25 09:09 56.05240 -3.58728 28129 ft 412 kts 338°
2026-04-25 09:10 56.07916 -3.60531 27643 ft 408 kts 338°
2026-04-25 09:10 56.10558 -3.62312 27161 ft 405 kts 338°
2026-04-25 09:10 56.13185 -3.64086 26677 ft 401 kts 337°
2026-04-25 09:10 56.15785 -3.65833 26206 ft 398 kts 339°
2026-04-25 09:11 56.21224 -3.65857 25275 ft 399 kts 16°
2026-04-25 09:11 56.23704 -3.63632 24811 ft 399 kts 33°
2026-04-25 09:11 56.25954 -3.60750 24352 ft 398 kts 35°
2026-04-25 09:12 56.28173 -3.57792 23893 ft 395 kts 35°
2026-04-25 09:12 56.30378 -3.54860 23367 ft 393 kts 35°
2026-04-25 09:12 56.32585 -3.51974 22861 ft 390 kts 34°
2026-04-25 09:12 56.34778 -3.49135 22400 ft 386 kts 34°
2026-04-25 09:13 56.36956 -3.46324 21940 ft 383 kts 34°
2026-04-25 09:13 56.39104 -3.43541 21582 ft 377 kts 33°
2026-04-25 09:13 56.41228 -3.40779 21133 ft 375 kts 33°
2026-04-25 09:13 56.43334 -3.38034 20688 ft 372 kts 33°
2026-04-25 09:14 56.45432 -3.35330 20254 ft 369 kts 32°
2026-04-25 09:14 56.47546 -3.32705 19822 ft 367 kts 32°
2026-04-25 09:14 56.49653 -3.30120 19370 ft 365 kts 32°
2026-04-25 09:14 56.51746 -3.27553 18950 ft 363 kts 32°
2026-04-25 09:15 56.53835 -3.24981 18482 ft 363 kts 31°
2026-04-25 09:15 56.55916 -3.22410 17999 ft 361 kts 31°
2026-04-25 09:15 56.57980 -3.19849 17522 ft 358 kts 31°
2026-04-25 09:15 56.60027 -3.17304 17094 ft 355 kts 31°
2026-04-25 09:16 56.62055 -3.14778 16657 ft 352 kts 31°
2026-04-25 09:16 56.64069 -3.12267 16227 ft 350 kts 31°
2026-04-25 09:16 56.66064 -3.09776 15798 ft 347 kts 31°
2026-04-25 09:16 56.68047 -3.07296 15373 ft 345 kts 31°
2026-04-25 09:17 56.71960 -3.02383 14762 ft 338 kts 31°
2026-04-25 09:17 56.73897 -2.99940 14533 ft 341 kts 31°
2026-04-25 09:17 56.75861 -2.97462 14295 ft 344 kts 31°
2026-04-25 09:18 56.77843 -2.94961 13685 ft 351 kts 31°
2026-04-25 09:18 56.79841 -2.92446 13190 ft 348 kts 31°
2026-04-25 09:18 56.81825 -2.89944 12747 ft 345 kts 31°
2026-04-25 09:18 56.83793 -2.87458 12298 ft 342 kts 30°
2026-04-25 09:19 56.85741 -2.84997 11864 ft 339 kts 31°
2026-04-25 09:19 56.87669 -2.82556 11411 ft 336 kts 31°
2026-04-25 09:19 56.89602 -2.80110 10839 ft 338 kts 31°
2026-04-25 09:19 56.91526 -2.77674 10539 ft 332 kts 31°
2026-04-25 09:20 56.93393 -2.75314 10353 ft 321 kts 31°
2026-04-25 09:20 56.95206 -2.73020 10203 ft 311 kts 30°
2026-04-25 09:20 56.96956 -2.70804 10100 ft 300 kts 30°
2026-04-25 09:20 56.98633 -2.68676 10087 ft 287 kts 30°
2026-04-25 09:21 57.00262 -2.66601 9848 ft 287 kts 30°
2026-04-25 09:21 57.01956 -2.64458 9635 ft 307 kts 30°
2026-04-25 09:21 57.03754 -2.62169 9381 ft 319 kts 35°
2026-04-25 09:21 57.05211 -2.59085 9087 ft 324 kts 58°
2026-04-25 09:22 57.05880 -2.55163 8834 ft 324 kts 83°
2026-04-25 09:22 57.05646 -2.51084 8569 ft 322 kts 107°
2026-04-25 09:22 57.04641 -2.47463 8333 ft 315 kts 122°
2026-04-25 09:22 57.03461 -2.44177 8061 ft 303 kts 124°
2026-04-25 09:23 57.02298 -2.41042 7795 ft 292 kts 124°
2026-04-25 09:23 57.01170 -2.38019 7543 ft 283 kts 124°
2026-04-25 09:23 57.00070 -2.35076 7294 ft 278 kts 124°
2026-04-25 09:23 56.98975 -2.32158 7054 ft 278 kts 124°
2026-04-25 09:24 56.97862 -2.29200 6834 ft 285 kts 124°
2026-04-25 09:24 56.96726 -2.26185 6599 ft 289 kts 124°
2026-04-25 09:24 56.95593 -2.23172 6337 ft 286 kts 124°
2026-04-25 09:24 56.94499 -2.20148 6077 ft 283 kts 117°
2026-04-25 09:25 56.94000 -2.16719 5797 ft 277 kts 88°
2026-04-25 09:25 56.94388 -2.13357 5550 ft 268 kts 64°
2026-04-25 09:25 56.95223 -2.10352 5306 ft 262 kts 50°
2026-04-25 09:25 56.96563 -2.08248 5037 ft 252 kts 21°
2026-04-25 09:26 56.98183 -2.07299 4800 ft 246 kts 11°
2026-04-25 09:26 56.99830 -2.06577 4537 ft 238 kts 10°
2026-04-25 09:26 57.01380 -2.05926 4446 ft 219 kts 10°
2026-04-25 09:26 57.02812 -2.05505 4275 ft 199 kts 351°
2026-04-25 09:27 57.03648 -2.06060 4178 ft 184 kts 325°
2026-04-25 09:27 57.05067 -2.07719 3687 ft 183 kts 329°
2026-04-25 09:27 57.05806 -2.08487 3470 ft 180 kts 330°
2026-04-25 09:27 57.06915 -2.09600 3028 ft 179 kts 333°
2026-04-25 09:28 57.08000 -2.10652 2720 ft 167 kts 336°
2026-04-25 09:28 57.09026 -2.11501 2509 ft 156 kts 339°
2026-04-25 09:28 57.10000 -2.12236 2313 ft 148 kts 340°
2026-04-25 09:28 57.10948 -2.12940 2120 ft 148 kts 340°
2026-04-25 09:29 57.11896 -2.13643 1927 ft 141 kts 341°
2026-04-25 09:29 57.12773 -2.14292 1711 ft 130 kts 341°
2026-04-25 09:29 57.13595 -2.14899 1538 ft 128 kts 340°
2026-04-25 09:29 57.14419 -2.15504 1371 ft 128 kts 341°
2026-04-25 09:30 57.15244 -2.16077 1290 ft 126 kts 341°
2026-04-25 09:30 57.16051 -2.16689 1144 ft 121 kts 338°
2026-04-25 09:30 57.16810 -2.17273 863 ft 117 kts 338°
2026-04-25 09:30 57.17588 -2.17868 681 ft 124 kts 337°
2026-04-25 09:31 57.18389 -2.18453 504 ft 124 kts 335°
2026-04-25 09:31 57.19199 -2.19054 347 ft 127 kts 337°
2026-04-25 09:31 57.19988 -2.19627 251 ft 112 kts 338°
2026-04-25 09:31 57.20583 -2.20066 248 ft 70 kts 338°
2026-04-25 09:32 57.20880 -2.20285 245 ft 15 kts 338°
2026-04-25 09:32 57.20919 -2.20404 246 ft 13 kts 246°
2026-04-25 09:32 57.20855 -2.20514 246 ft 12 kts 210°
2026-04-25 09:32 57.20836 -2.20531 246 ft 2 kts 205°
2026-04-25 09:33 57.20827 -2.20539 246 ft 0 kts 204°
2026-04-25 09:33 57.20822 -2.20542 246 ft 1 kts 204°
2026-04-25 09:33 57.20786 -2.20551 246 ft 10 kts 172°
2026-04-25 09:33 57.20696 -2.20482 246 ft 16 kts 157°
2026-04-25 09:34 57.20596 -2.20406 246 ft 15 kts 158°
2026-04-25 09:34 57.20502 -2.20344 246 ft 9 kts 172°
2026-04-25 09:34 57.20455 -2.20386 246 ft 8 kts 210°
2026-04-25 09:34 57.20404 -2.20376 246 ft 8 kts 159°
2026-04-25 09:35 57.20356 -2.20342 246 ft 7 kts 159°
2026-04-25 09:35 57.20310 -2.20307 246 ft 7 kts 156°
2026-04-25 09:35 57.20265 -2.20273 246 ft 7 kts 160°
2026-04-25 09:35 57.20220 -2.20266 246 ft 7 kts 209°
2026-04-25 09:36 57.20201 -2.20325 246 ft 0 kts 245°
2026-04-25 09:36 57.20198 -2.20337 246 ft 2 kts 247°
2026-04-25 09:36 57.20195 -2.20354 246 ft 1 kts 248°